Flag for U.S.A. Weather past 2 weeks in Carson City, Nevada, U.S.A.

Now
84 °F

Mostly cloudy.


Feels Like: 82 °F
Forecast: 61 / 83 °F
Wind: 6 mph from Southwest

Location: Reno Tahoe International Airport

Current Time: Aug 2, 2015 at 1:34:01 PM

Latest Report: Aug 2, 2015 at 12:55 PM


Visibility: 10 mi

Pressure: 29.89 "Hg (25.44 "Hg at 1425m altitude)

Humidity: 26%

Dew point: 46 °F

Location of Carson CityLocation

Historic Weather in Carson City — Graph

°F

Carson City temperature yesterday

Maximum temperature yesterday: 97 °F (at 3:55 PM)
Minimum temperature yesterday: 68 °F (at 3:55 AM)
Average temperature yesterday: 81 °F

Past Weeks' High & Low Weather Summary

 TemperatureHumidityPressure
High98 °F (Jul 30, 12:55 PM)73% (Jul 22, 3:55 AM)30.11 "Hg (Jul 22, 3:55 AM)
Low56 °F (Jul 28, 5:55 AM)7% (Jul 30, 12:55 PM)29.70 "Hg (Jul 22, 2:55 PM)
Average76 °F29%29.94 "Hg
* Reported Jul 18 11:55 AM — Aug 2 11:55 AM, Carson City, Weather by CustomWeather, © 2015

Note: Actual official high and low records may vary slightly from our data, if they occured in-between our weather recording intervals... More about our weather records

Advertising

Carson City weather history for previous 24 hours

 ConditionsComfort  
Time TempWeatherWind HumidityBarometerVisibility
11:55 AM
Sun, Aug 2
83 °FMostly cloudy.3 mph30%29.89 "Hg10 mi
10:55 AM80 °FMostly cloudy.No wind35%29.91 "Hg10 mi
9:55 AM77 °FCloudy.No wind40%29.91 "Hg10 mi
8:55 AM74 °FMostly cloudy.5 mph45%29.93 "Hg10 mi
7:55 AM73 °FMostly cloudy.5 mph44%29.91 "Hg10 mi
6:55 AM70 °FOvercast.No wind47%29.90 "Hg10 mi
5:55 AM68 °FOvercast.No wind55%29.89 "Hg10 mi
4:55 AM70 °FMostly cloudy.No wind49%29.88 "Hg10 mi
3:55 AM73 °FPartly cloudy.3 mph40%29.86 "Hg10 mi
2:55 AM73 °FPartly cloudy.No wind43%29.87 "Hg10 mi
1:55 AM77 °FPartly cloudy.7 mph31%29.87 "Hg10 mi
12:55 AM79 °FPassing clouds.6 mph35%29.87 "Hg10 mi
11:55 PM
Sat, Aug 1
80 °FPartly cloudy.10 mph34%29.85 "Hg10 mi
10:55 PM82 °FThunderstorms. Partly cloudy.No wind27%29.89 "Hg10 mi
9:55 PM83 °FPartly cloudy.14 mph26%29.90 "Hg10 mi
8:55 PM85 °FBroken clouds.8 mph27%29.87 "Hg10 mi
7:55 PM86 °FBroken clouds.7 mph28%29.85 "Hg10 mi
6:55 PM90 °FBroken clouds.12 mph20%29.83 "Hg10 mi
5:55 PM92 °FBroken clouds.14 mph18%29.83 "Hg10 mi
4:55 PM93 °FBroken clouds.No wind14%29.82 "Hg10 mi
3:55 PM97 °FBroken clouds.13 mph12%29.82 "Hg10 mi
2:55 PM94 °FPartly sunny.No wind14%29.84 "Hg10 mi
1:55 PM93 °FPartly sunny.3 mph14%29.87 "Hg10 mi
Weather by CustomWeather, © 2015

See weather overviewHow to use our weather pages